Hovedside
METAR-TAF:

METAR-TAF

Lufthavner :

Stokmarknes, Norge

Stokmarknes lufthavn

breddegrad: 68-35N, lengdegrad: 015-01E, høyde over havet: 0 m

Gjeldene værobservasjon

Denne rapporten ble laget for 42 minutter siden, klokken 13:50 UTC
Vind 17 kt fra Sørøst
Temperatur 0°C
Luftfuktighet 47%
Trykk 1014 hPa
Sikt 10 km eller mer
Få skyer i en høyde av 4000 ft

METAR: ENSK 221350Z 13017KT 9999 FEW040 M00/M10 Q1014

Tid: 15:32 (14:32 UTC)


TAF: fraværende

Værobservasjoner og værvarsel for over 4000 flyplasser (METAR- og TAF-rapporter).

Tilgjengelige stasjoner er representert av de røde og gule prikkene på kartet.

Hold musepekeren over prikken for å se navnet på stasjonen.

Klikk så for å se værobservasjoner og -varsler.

For å forandre kartet kan du klikke på den grønne knappen med svart kryss for å zoome inn, på den grønne knappen med strek for å zoome ut, eller på de grønne pilene for å se tilstøtende kart.


METAR-TAF: